SL-24 R/B, 40303

Orbit data source: Space-Track

SL-24 R/B, 40303 is space debris in SSO originally from a launch on Thu, 06 Nov 2014 UTC launched from the Orenburg, Russia (OREN). Debris objects in space refer to the collection of defunct objects orbiting the Earth. Examples of debris include non-operational satellites, rocket bodies, and fragments generated from explosions, collisions, or faulty payload assembly.

Loading next visibility...
Identifier
40303, 2014-070F
Orbit
SSO
Country
Flag of CISCIS
Related business
Manufacturer
Yuzhnoe
Mission
Spacecraft
Bus & Motor
15A18-BR, Unknown motor
Mass
~1,000 kg wet, ~1,000 kg dry
Launch date (UTC)
Icon of a cake. It is the launch day of the satellite!2014-11-06 (11 years ago)
Launch vehicle
Unknown
Launch site
Orenburg, Russia (OREN)
Object type
Payload
Rocket body
Debris
Shape & HBR
Cyl, 1.5 m
Radar Cross Section
10.603 m², Large (>1 m²)

Expand to show TLE details & history
Last TLE update: 12 hours ago

TLE from 12 hours ago
0 SL-24 R/B
1 40303U 14070F   25309.87869619  .00000916  00000-0  21469-3 0  9996
2 40303  97.1556 270.5228 0949197  35.5927 330.4870 13.15052261527275
Epoch: 2025-11-05T21:05Z
TLE epoch observation values (Epoch: 2025-11-05T21:05:19.350Z)
Latitude
-0.00008°
Longitude
-91.15286°
Altitude
598.948 km
Speed
7.857 km/s
True Right ascension
18h 02m 05s
True Declination
0° 00' 00"
Sunlit
Object was in daylight at epoch
Visualization orbit readout
Latitude
Unknown
Longitude
Unknown
Altitude
Unknown
Speed
Unknown
Apparent Right ascension
Unknown
Apparent Declination
Unknown
Sunlit
N/A
Visualization observer readout
Local Sidereal Time
05:24:51
Azimuth
Unknown
Elevation
Unknown
Doppler factor
Unknown
Orbital elements
Apogee altitude
1,920.274 km
Perigee altitude
481.478 km
Semi-major axis
7,579.013 km
Eccentricity
0.09492
Inclination
97.1556°
RAAN
270.5228°
Arg. of periapsis
35.5927°
True anomaly
324.52594°
Mean anomaly
330.487°
Eccentric anomaly
327.57055°
Mean motion
3.28946 °/min
Orbital period
109.44 mins
BSTAR
0.00021469
Loading maneuver chart data...
Computing Atmospheric mass density...
Loading historical data...
Loading historical data...
Loading historical data...
Loading historical data...
Loading historical data...
Loading historical data...
Loading historical data...

Documentation

Showing up to 5 results
|